Time,TemperatureF,DewpointF,PressureIn,WindDirection,WindDirectionDegrees,WindSpeedMPH,WindSpeedGustMPH,Humidity,HourlyPrecipIn,Conditions,Clouds,dailyrainin,SoftwareType,DateUTC
2013-03-17 00:02:00,59.8,48.8,29.88,WSW,240,1.0,5.0,67,0.00,,,0.00,Wunderground v.1.15,2013-03-17 04:02:00,
2013-03-17 00:07:00,59.4,48.0,29.88,WSW,239,1.0,1.0,66,0.00,,,0.00,Wunderground v.1.15,2013-03-17 04:07:00,
2013-03-17 00:12:00,59.2,48.2,29.88,WSW,239,0.0,5.0,67,0.00,,,0.00,Wunderground v.1.15,2013-03-17 04:12:00,
2013-03-17 00:17:00,59.2,47.8,29.88,WSW,239,0.0,5.0,66,0.00,,,0.00,Wunderground v.1.15,2013-03-17 04:17:00,
2013-03-17 00:27:00,60.3,48.1,29.88,WSW,254,0.0,5.0,64,0.00,,,0.00,Wunderground v.1.15,2013-03-17 04:27:00,
2013-03-17 00:32:00,61.2,48.1,29.88,WSW,255,1.0,5.0,62,0.00,,,0.00,Wunderground v.1.15,2013-03-17 04:32:00,
2013-03-17 00:37:00,61.8,48.2,29.88,WSW,248,2.0,5.0,61,0.00,,,0.00,Wunderground v.1.15,2013-03-17 04:37:00,
2013-03-17 00:42:00,62.1,48.5,29.88,WSW,249,2.0,5.0,61,0.00,,,0.00,Wunderground v.1.15,2013-03-17 04:42:00,
2013-03-17 00:47:00,62.5,48.9,29.88,WSW,253,3.0,5.0,61,0.00,,,0.00,Wunderground v.1.15,2013-03-17 04:47:00,
2013-03-17 00:52:00,62.5,48.9,29.88,WSW,250,4.0,5.0,61,0.00,,,0.00,Wunderground v.1.15,2013-03-17 04:52:00,
2013-03-17 00:57:00,62.4,49.2,29.88,WSW,255,3.0,3.0,62,0.00,,,0.00,Wunderground v.1.15,2013-03-17 04:57:00,
2013-03-17 01:02:00,62.6,49.4,29.88,WSW,254,3.0,5.0,62,0.00,,,0.00,Wunderground v.1.15,2013-03-17 05:02:00,
2013-03-17 01:07:00,62.8,49.6,29.88,WSW,257,3.0,5.0,62,0.00,,,0.00,Wunderground v.1.15,2013-03-17 05:07:00,
2013-03-17 01:12:00,63.1,49.9,29.88,WSW,245,4.0,5.0,62,0.00,,,0.00,Wunderground v.1.15,2013-03-17 05:12:00,
2013-03-17 01:17:00,63.3,49.6,29.88,WSW,252,4.0,5.0,61,0.00,,,0.00,Wunderground v.1.15,2013-03-17 05:17:00,
2013-03-17 01:22:00,63.7,49.5,29.88,WSW,239,4.0,5.0,60,0.00,,,0.00,Wunderground v.1.15,2013-03-17 05:22:00,
2013-03-17 01:32:00,64.1,49.5,29.88,WSW,252,6.0,6.0,59,0.00,,,0.00,Wunderground v.1.15,2013-03-17 05:32:00,
2013-03-17 01:37:00,64.2,49.6,29.88,WSW,245,6.0,6.0,59,0.00,,,0.00,Wunderground v.1.15,2013-03-17 05:37:00,
2013-03-17 01:42:00,64.2,49.6,29.88,WSW,250,5.0,6.0,59,0.00,,,0.00,Wunderground v.1.15,2013-03-17 05:42:00,
2013-03-17 01:47:00,64.4,49.8,29.88,WSW,253,5.0,7.0,59,0.00,,,0.00,Wunderground v.1.15,2013-03-17 05:47:00,
2013-03-17 01:52:00,64.5,49.4,29.87,WSW,246,6.0,7.0,58,0.00,,,0.00,Wunderground v.1.15,2013-03-17 05:52:00,
2013-03-17 01:57:00,64.6,49.5,29.87,WSW,248,6.0,6.0,58,0.00,,,0.00,Wunderground v.1.15,2013-03-17 05:57:00,
2013-03-17 02:02:00,64.5,49.4,29.88,SW,236,5.0,6.0,58,0.00,,,0.00,Wunderground v.1.15,2013-03-17 06:02:00,
2013-03-17 02:12:00,64.5,49.4,29.88,WSW,248,5.0,6.0,58,0.00,,,0.00,Wunderground v.1.15,2013-03-17 06:12:00,
2013-03-17 02:17:00,64.5,49.8,29.88,WSW,253,5.0,7.0,59,0.00,,,0.00,Wunderground v.1.15,2013-03-17 06:17:00,
2013-03-17 02:22:00,64.5,49.4,29.87,West,260,6.0,7.0,58,0.00,,,0.00,Wunderground v.1.15,2013-03-17 06:22:00,
2013-03-17 02:27:00,64.5,49.4,29.88,WSW,249,6.0,6.0,58,0.00,,,0.00,Wunderground v.1.15,2013-03-17 06:27:00,
2013-03-17 02:32:00,64.4,49.3,29.88,WSW,249,6.0,6.0,58,0.00,,,0.00,Wunderground v.1.15,2013-03-17 06:32:00,
2013-03-17 02:37:00,64.5,49.4,29.88,WSW,252,6.0,6.0,58,0.00,,,0.00,Wunderground v.1.15,2013-03-17 06:37:00,
2013-03-17 02:42:00,64.1,49.5,29.88,SW,229,5.0,6.0,59,0.00,,,0.00,Wunderground v.1.15,2013-03-17 06:42:00,
2013-03-17 02:47:00,64.0,49.4,29.87,WSW,248,5.0,5.0,59,0.00,,,0.00,Wunderground v.1.15,2013-03-17 06:47:00,
2013-03-17 02:52:00,63.8,49.6,29.87,WSW,242,5.0,5.0,60,0.00,,,0.00,Wunderground v.1.15,2013-03-17 06:52:00,
2013-03-17 02:57:00,63.5,49.4,29.87,WSW,239,4.0,5.0,60,0.00,,,0.00,Wunderground v.1.15,2013-03-17 06:57:00,
2013-03-17 03:07:00,63.5,48.9,29.87,WSW,245,5.0,6.0,59,0.00,,,0.00,Wunderground v.1.15,2013-03-17 07:07:00,
2013-03-17 03:12:00,63.5,48.9,29.87,WSW,252,5.0,6.0,59,0.00,,,0.00,Wunderground v.1.15,2013-03-17 07:12:00,
2013-03-17 03:18:00,63.5,49.4,29.87,WSW,252,6.0,6.0,60,0.00,,,0.00,Wunderground v.1.15,2013-03-17 07:18:00,
2013-03-17 03:27:00,62.7,49.1,29.87,WSW,248,4.0,5.0,61,0.00,,,0.00,Wunderground v.1.15,2013-03-17 07:27:00,
2013-03-17 03:32:00,62.7,49.1,29.87,WSW,253,4.0,5.0,61,0.00,,,0.00,Wunderground v.1.15,2013-03-17 07:32:00,
2013-03-17 03:37:00,62.8,49.1,29.87,SW,233,4.0,4.0,61,0.00,,,0.00,Wunderground v.1.15,2013-03-17 07:37:00,
2013-03-17 03:42:00,62.4,48.8,29.87,SW,225,4.0,5.0,61,0.00,,,0.00,Wunderground v.1.15,2013-03-17 07:42:00,
2013-03-17 03:47:00,61.8,49.1,29.87,SW,233,4.0,5.0,63,0.00,,,0.00,Wunderground v.1.15,2013-03-17 07:47:00,
2013-03-17 03:52:00,61.5,48.8,29.87,WSW,248,4.0,5.0,63,0.00,,,0.00,Wunderground v.1.15,2013-03-17 07:52:00,
2013-03-17 03:57:00,61.4,48.7,29.87,SW,231,4.0,5.0,63,0.00,,,0.00,Wunderground v.1.15,2013-03-17 07:57:00,
2013-03-17 04:02:00,61.3,48.6,29.87,WSW,248,4.0,5.0,63,0.00,,,0.00,Wunderground v.1.15,2013-03-17 08:02:00,
2013-03-17 04:12:00,61.8,48.6,29.86,West,263,4.0,5.0,62,0.00,,,0.00,Wunderground v.1.15,2013-03-17 08:12:00,
2013-03-17 04:17:00,61.9,48.7,29.86,WSW,252,4.0,4.0,62,0.00,,,0.00,Wunderground v.1.15,2013-03-17 08:17:00,
2013-03-17 04:22:00,61.6,48.4,29.86,WSW,239,3.0,5.0,62,0.00,,,0.00,Wunderground v.1.15,2013-03-17 08:22:00,
2013-03-17 04:27:00,61.3,48.6,29.86,WSW,252,3.0,5.0,63,0.00,,,0.00,Wunderground v.1.15,2013-03-17 08:27:00,
2013-03-17 04:32:00,61.0,48.3,29.86,WSW,252,4.0,5.0,63,0.00,,,0.00,Wunderground v.1.15,2013-03-17 08:32:00,
2013-03-17 04:42:00,60.7,48.0,29.86,SW,229,4.0,5.0,63,0.00,,,0.00,Wunderground v.1.15,2013-03-17 08:42:00,
2013-03-17 04:47:00,60.5,48.3,29.86,WSW,246,4.0,5.0,64,0.00,,,0.00,Wunderground v.1.15,2013-03-17 08:47:00,
2013-03-17 04:52:00,60.3,48.1,29.86,SW,228,4.0,5.0,64,0.00,,,0.00,Wunderground v.1.15,2013-03-17 08:52:00,
2013-03-17 04:57:00,60.1,47.9,29.86,SW,226,4.0,4.0,64,0.00,,,0.00,Wunderground v.1.15,2013-03-17 08:57:00,
2013-03-17 05:02:00,59.9,47.7,29.86,WSW,257,3.0,5.0,64,0.00,,,0.00,Wunderground v.1.15,2013-03-17 09:02:00,
2013-03-17 05:07:00,59.8,47.6,29.86,WSW,255,3.0,3.0,64,0.00,,,0.00,Wunderground v.1.15,2013-03-17 09:07:00,
2013-03-17 05:17:00,59.6,47.8,29.86,WSW,256,2.0,5.0,65,0.00,,,0.00,Wunderground v.1.15,2013-03-17 09:17:00,
2013-03-17 05:22:00,59.4,47.6,29.87,WSW,243,2.0,5.0,65,0.00,,,0.00,Wunderground v.1.15,2013-03-17 09:22:00,
2013-03-17 05:27:00,58.7,47.4,29.87,WSW,243,2.0,5.0,66,0.00,,,0.00,Wunderground v.1.15,2013-03-17 09:27:00,
2013-03-17 05:32:00,58.5,47.2,29.87,West,269,3.0,5.0,66,0.00,,,0.00,Wunderground v.1.15,2013-03-17 09:32:00,
2013-03-17 05:37:00,58.4,47.5,29.87,West,273,3.0,3.0,67,0.00,,,0.00,Wunderground v.1.15,2013-03-17 09:37:00,
2013-03-17 05:47:00,58.6,47.7,29.88,WSW,253,3.0,5.0,67,0.00,,,0.00,Wunderground v.1.15,2013-03-17 09:47:00,
2013-03-17 05:52:00,58.6,47.7,29.88,WSW,253,3.0,5.0,67,0.00,,,0.00,Wunderground v.1.15,2013-03-17 09:52:00,
2013-03-17 05:58:00,58.7,47.4,29.88,WSW,249,3.0,4.0,66,0.00,,,0.00,Wunderground v.1.15,2013-03-17 09:58:00,
2013-03-17 06:07:00,58.9,47.2,29.89,West,266,5.0,5.0,65,0.00,,,0.00,Wunderground v.1.15,2013-03-17 10:07:00,
2013-03-17 06:17:00,58.9,47.2,29.89,WSW,256,6.0,6.0,65,0.00,,,0.00,Wunderground v.1.15,2013-03-17 10:17:00,
2013-03-17 06:27:00,58.4,47.1,29.89,WSW,257,5.0,5.0,66,0.00,,,0.00,Wunderground v.1.15,2013-03-17 10:27:00,
2013-03-17 06:32:00,58.2,46.9,29.89,West,262,6.0,6.0,66,0.00,,,0.00,Wunderground v.1.15,2013-03-17 10:32:00,
2013-03-17 06:37:00,58.0,47.1,29.90,WSW,256,6.0,6.0,67,0.00,,,0.00,Wunderground v.1.15,2013-03-17 10:37:00,
2013-03-17 06:42:00,57.9,47.0,29.90,WSW,250,6.0,6.0,67,0.00,,,0.00,Wunderground v.1.15,2013-03-17 10:42:00,
2013-03-17 06:47:00,57.6,46.7,29.90,WSW,252,5.0,5.0,67,0.00,,,0.00,Wunderground v.1.15,2013-03-17 10:47:00,
2013-03-17 06:57:00,57.1,47.0,29.90,West,259,4.0,5.0,69,0.00,,,0.00,Wunderground v.1.15,2013-03-17 10:57:00,
2013-03-17 07:02:00,56.8,46.7,29.90,West,259,4.0,5.0,69,0.00,,,0.00,Wunderground v.1.15,2013-03-17 11:02:00,
2013-03-17 07:07:00,56.7,46.6,29.90,West,262,4.0,6.0,69,0.00,,,0.00,Wunderground v.1.15,2013-03-17 11:07:00,
2013-03-17 07:12:00,56.7,46.6,29.90,West,259,5.0,6.0,69,0.00,,,0.00,Wunderground v.1.15,2013-03-17 11:12:00,
2013-03-17 07:17:00,56.8,46.7,29.90,West,259,6.0,6.0,69,0.00,,,0.00,Wunderground v.1.15,2013-03-17 11:17:00,
2013-03-17 07:22:00,56.8,46.7,29.90,West,264,6.0,6.0,69,0.00,,,0.00,Wunderground v.1.15,2013-03-17 11:22:00,
2013-03-17 07:32:00,56.6,46.9,29.91,West,267,6.0,6.0,70,0.00,,,0.00,Wunderground v.1.15,2013-03-17 11:32:00,
2013-03-17 07:37:00,56.5,46.8,29.91,West,261,5.0,5.0,70,0.00,,,0.00,Wunderground v.1.15,2013-03-17 11:37:00,
2013-03-17 07:42:00,56.4,47.1,29.91,WSW,256,4.0,5.0,71,0.00,,,0.00,Wunderground v.1.15,2013-03-17 11:42:00,
2013-03-17 07:47:00,56.3,47.0,29.91,West,267,4.0,5.0,71,0.00,,,0.00,Wunderground v.1.15,2013-03-17 11:47:00,
2013-03-17 07:52:00,56.2,46.9,29.91,West,274,3.0,5.0,71,0.00,,,0.00,Wunderground v.1.15,2013-03-17 11:52:00,
2013-03-17 08:02:00,56.2,47.3,29.91,WSW,257,4.0,5.0,72,0.00,,,0.00,Wunderground v.1.15,2013-03-17 12:02:00,
2013-03-17 08:07:00,56.3,47.4,29.91,WSW,248,5.0,5.0,72,0.00,,,0.00,Wunderground v.1.15,2013-03-17 12:07:00,
2013-03-17 08:12:00,56.5,47.6,29.91,West,263,5.0,7.0,72,0.00,,,0.00,Wunderground v.1.15,2013-03-17 12:12:00,
2013-03-17 08:17:00,56.7,47.8,29.91,WSW,244,6.0,6.0,72,0.00,,,0.00,Wunderground v.1.15,2013-03-17 12:17:00,
2013-03-17 08:22:00,56.8,47.9,29.92,West,277,7.0,7.0,72,0.00,,,0.00,Wunderground v.1.15,2013-03-17 12:22:00,
2013-03-17 08:27:00,56.8,47.9,29.92,WSW,255,6.0,6.0,72,0.00,,,0.00,Wunderground v.1.15,2013-03-17 12:27:00,
2013-03-17 08:37:00,57.0,48.4,29.92,West,260,6.0,6.0,73,0.00,,,0.00,Wunderground v.1.15,2013-03-17 12:37:00,
2013-03-17 08:42:00,57.2,48.6,29.92,WSW,252,6.0,8.0,73,0.00,,,0.00,Wunderground v.1.15,2013-03-17 12:42:00,
2013-03-17 08:47:00,57.4,48.8,29.92,West,264,6.0,6.0,73,0.00,,,0.00,Wunderground v.1.15,2013-03-17 12:47:00,
2013-03-17 08:52:00,57.6,48.6,29.92,West,270,6.0,6.0,72,0.00,,,0.00,Wunderground v.1.15,2013-03-17 12:52:00,
2013-03-17 08:57:00,57.7,48.7,29.92,WSW,257,6.0,6.0,72,0.00,,,0.00,Wunderground v.1.15,2013-03-17 12:57:00,
2013-03-17 09:07:00,58.1,49.5,29.92,West,259,5.0,6.0,73,0.00,,,0.00,Wunderground v.1.15,2013-03-17 13:07:00,
2013-03-17 09:12:00,58.4,49.4,29.93,WSW,242,5.0,7.0,72,0.00,,,0.00,Wunderground v.1.15,2013-03-17 13:12:00,
2013-03-17 09:17:00,58.8,50.2,29.93,West,261,6.0,6.0,73,0.00,,,0.00,Wunderground v.1.15,2013-03-17 13:17:00,
2013-03-17 09:22:00,59.4,50.7,29.93,WNW,286,6.0,6.0,73,0.00,,,0.00,Wunderground v.1.15,2013-03-17 13:22:00,
2013-03-17 09:27:00,59.9,50.5,29.93,WSW,253,6.0,8.0,71,0.00,,,0.00,Wunderground v.1.15,2013-03-17 13:27:00,
2013-03-17 09:32:00,60.4,51.0,29.93,West,264,8.0,8.0,71,0.00,,,0.00,Wunderground v.1.15,2013-03-17 13:32:00,
2013-03-17 09:42:00,60.6,50.8,29.93,WSW,243,10.0,11.0,70,0.00,,,0.00,Wunderground v.1.15,2013-03-17 13:42:00,
2013-03-17 09:47:00,60.7,50.9,29.93,WSW,250,10.0,11.0,70,0.00,,,0.00,Wunderground v.1.15,2013-03-17 13:47:00,
2013-03-17 09:52:00,61.0,51.1,29.93,West,260,10.0,11.0,70,0.00,,,0.00,Wunderground v.1.15,2013-03-17 13:52:00,
2013-03-17 09:57:00,61.2,51.3,29.93,WSW,239,9.0,9.0,70,0.00,,,0.00,Wunderground v.1.15,2013-03-17 13:57:00,
2013-03-17 10:02:00,61.5,51.6,29.93,WSW,252,9.0,9.0,70,0.00,,,0.00,Wunderground v.1.15,2013-03-17 14:02:00,
2013-03-17 10:12:00,62.1,52.6,29.93,WSW,245,8.0,9.0,71,0.00,,,0.00,Wunderground v.1.15,2013-03-17 14:12:00,
2013-03-17 10:17:00,62.4,52.1,29.93,West,259,7.0,7.0,69,0.00,,,0.00,Wunderground v.1.15,2013-03-17 14:17:00,
2013-03-17 10:22:00,62.6,52.3,29.93,West,264,8.0,8.0,69,0.00,,,0.00,Wunderground v.1.15,2013-03-17 14:22:00,
2013-03-17 10:27:00,62.5,52.2,29.93,West,267,9.0,9.0,69,0.00,,,0.00,Wunderground v.1.15,2013-03-17 14:27:00,
2013-03-17 10:32:00,62.7,52.0,29.93,West,265,10.0,10.0,68,0.00,,,0.00,Wunderground v.1.15,2013-03-17 14:32:00,
2013-03-17 10:37:00,62.6,52.3,29.93,WSW,252,9.0,11.0,69,0.00,,,0.00,Wunderground v.1.15,2013-03-17 14:37:00,
2013-03-17 10:47:00,63.3,52.6,29.93,WSW,242,9.0,9.0,68,0.00,,,0.00,Wunderground v.1.15,2013-03-17 14:47:00,
2013-03-17 10:52:00,63.8,53.4,29.93,WSW,253,8.0,10.0,69,0.00,,,0.00,Wunderground v.1.15,2013-03-17 14:52:00,
2013-03-17 10:57:00,63.8,52.6,29.93,WSW,245,9.0,9.0,67,0.00,,,0.00,Wunderground v.1.15,2013-03-17 14:57:00,
2013-03-17 11:02:00,64.0,52.8,29.93,West,260,8.0,9.0,67,0.00,,,0.00,Wunderground v.1.15,2013-03-17 15:02:00,
2013-03-17 11:12:00,64.6,52.6,29.93,West,276,7.0,7.0,65,0.00,,,0.00,Wunderground v.1.15,2013-03-17 15:12:00,
2013-03-17 11:17:00,65.0,53.4,29.93,WSW,250,6.0,7.0,66,0.00,,,0.00,Wunderground v.1.15,2013-03-17 15:17:00,
2013-03-17 11:22:00,65.4,52.9,29.93,West,265,7.0,9.0,64,0.00,,,0.00,Wunderground v.1.15,2013-03-17 15:22:00,
2013-03-17 11:27:00,65.3,53.2,29.93,West,277,9.0,9.0,65,0.00,,,0.00,Wunderground v.1.15,2013-03-17 15:27:00,
2013-03-17 11:32:00,65.2,52.7,29.93,WSW,244,9.0,11.0,64,0.00,,,0.00,Wunderground v.1.15,2013-03-17 15:32:00,
2013-03-17 11:37:00,65.2,53.1,29.92,West,264,9.0,11.0,65,0.00,,,0.00,Wunderground v.1.15,2013-03-17 15:37:00,
2013-03-17 11:42:00,65.8,52.9,29.92,West,261,9.0,11.0,63,0.00,,,0.00,Wunderground v.1.15,2013-03-17 15:42:00,
2013-03-17 11:52:00,66.8,54.7,29.92,WSW,245,9.0,9.0,65,0.00,,,0.00,Wunderground v.1.15,2013-03-17 15:52:00,
2013-03-17 11:57:00,67.0,54.4,29.92,SW,236,10.0,10.0,64,0.00,,,0.00,Wunderground v.1.15,2013-03-17 15:57:00,
2013-03-17 12:02:00,67.4,54.4,29.92,SW,225,9.0,10.0,63,0.00,,,0.00,Wunderground v.1.15,2013-03-17 16:02:00,
2013-03-17 12:07:00,67.8,54.7,29.92,SW,233,8.0,8.0,63,0.00,,,0.00,Wunderground v.1.15,2013-03-17 16:07:00,
2013-03-17 12:12:00,68.2,54.2,29.91,SW,214,7.0,8.0,61,0.00,,,0.00,Wunderground v.1.15,2013-03-17 16:12:00,
2013-03-17 12:17:00,68.1,53.7,29.91,West,263,7.0,7.0,60,0.00,,,0.00,Wunderground v.1.15,2013-03-17 16:17:00,
2013-03-17 12:22:00,68.1,54.6,29.91,SW,219,8.0,8.0,62,0.00,,,0.00,Wunderground v.1.15,2013-03-17 16:22:00,
2013-03-17 12:27:00,68.6,55.5,29.91,SSW,211,7.0,7.0,63,0.00,,,0.00,Wunderground v.1.15,2013-03-17 16:27:00,
2013-03-17 12:32:00,68.7,53.3,29.91,SW,236,5.0,8.0,58,0.00,,,0.00,Wunderground v.1.15,2013-03-17 16:32:00,
2013-03-17 12:37:00,68.9,55.3,29.91,SW,235,6.0,7.0,62,0.00,,,0.00,Wunderground v.1.15,2013-03-17 16:37:00,
2013-03-17 12:42:00,69.0,54.1,29.91,SW,231,8.0,8.0,59,0.00,,,0.00,Wunderground v.1.15,2013-03-17 16:42:00,
2013-03-17 12:47:00,68.8,53.4,29.91,West,277,9.0,9.0,58,0.00,,,0.00,Wunderground v.1.15,2013-03-17 16:47:00,
2013-03-17 12:57:00,68.8,53.9,29.90,SW,224,7.0,7.0,59,0.00,,,0.00,Wunderground v.1.15,2013-03-17 16:57:00,
2013-03-17 13:02:00,68.8,53.9,29.90,West,277,7.0,7.0,59,0.00,,,0.00,Wunderground v.1.15,2013-03-17 17:02:00,
2013-03-17 13:07:00,69.2,53.3,29.89,WSW,256,7.0,10.0,57,0.00,,,0.00,Wunderground v.1.15,2013-03-17 17:07:00,
2013-03-17 13:12:00,69.8,54.8,29.89,West,276,8.0,14.0,59,0.00,,,0.00,Wunderground v.1.15,2013-03-17 17:12:00,
2013-03-17 13:17:00,70.3,54.3,29.89,WSW,252,11.0,13.0,57,0.00,,,0.00,Wunderground v.1.15,2013-03-17 17:17:00,
2013-03-17 13:27:00,69.8,52.9,29.89,West,276,12.0,12.0,55,0.00,,,0.00,Wunderground v.1.15,2013-03-17 17:27:00,
2013-03-17 13:32:00,70.0,53.6,29.88,WSW,253,10.0,12.0,56,0.00,,,0.00,Wunderground v.1.15,2013-03-17 17:32:00,
2013-03-17 13:37:00,70.0,53.1,29.88,WSW,253,11.0,13.0,55,0.00,,,0.00,Wunderground v.1.15,2013-03-17 17:37:00,
2013-03-17 13:42:00,69.7,53.3,29.88,West,260,12.0,13.0,56,0.00,,,0.00,Wunderground v.1.15,2013-03-17 17:42:00,
2013-03-17 13:47:00,69.9,53.5,29.87,WNW,287,10.0,12.0,56,0.00,,,0.00,Wunderground v.1.15,2013-03-17 17:47:00,
2013-03-17 13:52:00,70.2,53.3,29.87,WNW,285,10.0,13.0,55,0.00,,,0.00,Wunderground v.1.15,2013-03-17 17:52:00,
2013-03-17 14:02:00,70.5,52.0,29.87,West,278,12.0,13.0,52,0.00,,,0.00,Wunderground v.1.15,2013-03-17 18:02:00,
2013-03-17 14:07:00,70.5,53.6,29.86,West,267,11.0,11.0,55,0.00,,,0.00,Wunderground v.1.15,2013-03-17 18:07:00,
2013-03-17 14:12:00,70.2,52.8,29.86,West,260,10.0,16.0,54,0.00,,,0.00,Wunderground v.1.15,2013-03-17 18:12:00,
2013-03-17 14:17:00,70.3,53.4,29.86,WSW,248,12.0,12.0,55,0.00,,,0.00,Wunderground v.1.15,2013-03-17 18:17:00,
2013-03-17 14:22:00,70.2,53.3,29.85,WSW,253,11.0,12.0,55,0.00,,,0.00,Wunderground v.1.15,2013-03-17 18:22:00,
2013-03-17 14:32:00,71.2,53.7,29.85,SW,217,11.0,11.0,54,0.00,,,0.00,Wunderground v.1.15,2013-03-17 18:32:00,
2013-03-17 14:37:00,71.0,54.0,29.85,West,260,11.0,13.0,55,0.00,,,0.00,Wunderground v.1.15,2013-03-17 18:37:00,
2013-03-17 14:42:00,70.8,53.3,29.84,WSW,252,12.0,14.0,54,0.00,,,0.00,Wunderground v.1.15,2013-03-17 18:42:00,
2013-03-17 14:47:00,70.9,53.4,29.84,WSW,240,12.0,15.0,54,0.00,,,0.00,Wunderground v.1.15,2013-03-17 18:47:00,
2013-03-17 14:52:00,71.4,52.9,29.84,West,266,12.0,15.0,52,0.00,,,0.00,Wunderground v.1.15,2013-03-17 18:52:00,
2013-03-17 14:57:00,71.4,51.2,29.84,West,263,13.0,14.0,49,0.00,,,0.00,Wunderground v.1.15,2013-03-17 18:57:00,
2013-03-17 15:07:00,70.7,52.2,29.84,West,273,12.0,12.0,52,0.00,,,0.00,Wunderground v.1.15,2013-03-17 19:07:00,
2013-03-17 15:12:00,70.7,51.7,29.84,West,266,11.0,12.0,51,0.00,,,0.00,Wunderground v.1.15,2013-03-17 19:12:00,
2013-03-17 15:17:00,70.5,52.5,29.84,WSW,256,11.0,14.0,53,0.00,,,0.00,Wunderground v.1.15,2013-03-17 19:17:00,
2013-03-17 15:22:00,70.3,51.8,29.84,West,262,12.0,14.0,52,0.00,,,0.00,Wunderground v.1.15,2013-03-17 19:22:00,
2013-03-17 15:27:00,70.7,51.7,29.84,WSW,257,12.0,12.0,51,0.00,,,0.00,Wunderground v.1.15,2013-03-17 19:27:00,
2013-03-17 15:32:00,70.8,51.8,29.84,WSW,248,11.0,19.0,51,0.00,,,0.00,Wunderground v.1.15,2013-03-17 19:32:00,
2013-03-17 15:37:00,70.7,51.7,29.84,West,269,13.0,16.0,51,0.00,,,0.00,Wunderground v.1.15,2013-03-17 19:37:00,
2013-03-17 15:42:00,70.6,51.6,29.83,West,261,14.0,16.0,51,0.00,,,0.00,Wunderground v.1.15,2013-03-17 19:42:00,
2013-03-17 15:47:00,70.7,52.2,29.83,West,276,13.0,13.0,52,0.00,,,0.00,Wunderground v.1.15,2013-03-17 19:47:00,
2013-03-17 15:52:00,70.7,51.1,29.83,West,264,13.0,16.0,50,0.00,,,0.00,Wunderground v.1.15,2013-03-17 19:52:00,
2013-03-17 15:57:00,70.8,50.7,29.83,West,269,13.0,14.0,49,0.00,,,0.00,Wunderground v.1.15,2013-03-17 19:57:00,
2013-03-17 16:02:00,70.8,50.1,29.83,West,280,13.0,14.0,48,0.00,,,0.00,Wunderground v.1.15,2013-03-17 20:02:00,
2013-03-17 16:12:00,70.8,51.2,29.83,WSW,255,13.0,13.0,50,0.00,,,0.00,Wunderground v.1.15,2013-03-17 20:12:00,
2013-03-17 16:17:00,70.8,50.1,29.83,WSW,248,14.0,14.0,48,0.00,,,0.00,Wunderground v.1.15,2013-03-17 20:17:00,
2013-03-17 16:22:00,71.1,50.4,29.83,West,277,15.0,15.0,48,0.00,,,0.00,Wunderground v.1.15,2013-03-17 20:22:00,
2013-03-17 16:27:00,71.1,49.8,29.83,WNW,295,14.0,14.0,47,0.00,,,0.00,Wunderground v.1.15,2013-03-17 20:27:00,
2013-03-17 16:32:00,70.8,48.4,29.83,West,280,14.0,17.0,45,0.00,,,0.00,Wunderground v.1.15,2013-03-17 20:32:00,
2013-03-17 16:37:00,70.6,48.8,29.83,West,264,14.0,14.0,46,0.00,,,0.00,Wunderground v.1.15,2013-03-17 20:37:00,
2013-03-17 16:42:00,70.6,48.8,29.83,WSW,252,13.0,15.0,46,0.00,,,0.00,Wunderground v.1.15,2013-03-17 20:42:00,
2013-03-17 16:47:00,70.5,49.3,29.83,WSW,250,13.0,14.0,47,0.00,,,0.00,Wunderground v.1.15,2013-03-17 20:47:00,
2013-03-17 16:52:00,70.7,48.3,29.83,West,267,13.0,16.0,45,0.00,,,0.00,Wunderground v.1.15,2013-03-17 20:52:00,
2013-03-17 16:57:00,70.9,49.7,29.83,WSW,252,12.0,12.0,47,0.00,,,0.00,Wunderground v.1.15,2013-03-17 20:57:00,
2013-03-17 17:02:00,71.0,46.7,29.83,West,273,12.0,16.0,42,0.00,,,0.00,Wunderground v.1.15,2013-03-17 21:02:00,
2013-03-17 17:07:00,70.6,47.6,29.83,West,271,12.0,12.0,44,0.00,,,0.00,Wunderground v.1.15,2013-03-17 21:07:00,
2013-03-17 17:17:00,70.2,49.0,29.83,WSW,252,13.0,14.0,47,0.00,,,0.00,Wunderground v.1.15,2013-03-17 21:17:00,
2013-03-17 17:22:00,70.3,49.1,29.82,West,259,13.0,14.0,47,0.00,,,0.00,Wunderground v.1.15,2013-03-17 21:22:00,
2013-03-17 17:27:00,70.4,49.8,29.83,WSW,250,11.0,11.0,48,0.00,,,0.00,Wunderground v.1.15,2013-03-17 21:27:00,
2013-03-17 17:32:00,70.1,52.2,29.82,SW,233,9.0,11.0,53,0.00,,,0.00,Wunderground v.1.15,2013-03-17 21:32:00,
2013-03-17 17:37:00,69.8,52.4,29.82,WSW,242,10.0,15.0,54,0.00,,,0.00,Wunderground v.1.15,2013-03-17 21:37:00,
2013-03-17 17:47:00,69.2,52.3,29.82,SW,229,11.0,13.0,55,0.00,,,0.00,Wunderground v.1.15,2013-03-17 21:47:00,
2013-03-17 17:52:00,68.9,52.6,29.82,WSW,250,11.0,13.0,56,0.00,,,0.00,Wunderground v.1.15,2013-03-17 21:52:00,
2013-03-17 17:57:00,68.9,52.6,29.83,West,263,11.0,11.0,56,0.00,,,0.00,Wunderground v.1.15,2013-03-17 21:57:00,
2013-03-17 18:02:00,68.9,52.1,29.82,WSW,242,12.0,14.0,55,0.00,,,0.00,Wunderground v.1.15,2013-03-17 22:02:00,
2013-03-17 18:07:00,68.8,52.9,29.83,WSW,242,12.0,12.0,57,0.00,,,0.00,Wunderground v.1.15,2013-03-17 22:07:00,
2013-03-17 18:12:00,68.6,52.3,29.83,WSW,252,11.0,12.0,56,0.00,,,0.00,Wunderground v.1.15,2013-03-17 22:12:00,
2013-03-17 18:22:00,68.3,52.0,29.83,WSW,256,11.0,11.0,56,0.00,,,0.00,Wunderground v.1.15,2013-03-17 22:22:00,
2013-03-17 18:27:00,68.3,52.0,29.83,WSW,243,11.0,11.0,56,0.00,,,0.00,Wunderground v.1.15,2013-03-17 22:27:00,
2013-03-17 18:32:00,68.1,51.8,29.83,WSW,245,10.0,11.0,56,0.00,,,0.00,Wunderground v.1.15,2013-03-17 22:32:00,
2013-03-17 18:37:00,68.0,51.7,29.83,SW,232,10.0,11.0,56,0.00,,,0.00,Wunderground v.1.15,2013-03-17 22:37:00,
2013-03-17 18:42:00,67.9,51.6,29.83,West,262,10.0,11.0,56,0.00,,,0.00,Wunderground v.1.15,2013-03-17 22:42:00,
2013-03-17 18:52:00,67.7,51.4,29.83,WSW,245,9.0,10.0,56,0.00,,,0.00,Wunderground v.1.15,2013-03-17 22:52:00,
2013-03-17 18:57:00,67.5,50.8,29.83,WSW,242,9.0,9.0,55,0.00,,,0.00,Wunderground v.1.15,2013-03-17 22:57:00,
2013-03-17 19:02:00,67.4,50.2,29.83,SW,221,9.0,13.0,54,0.00,,,0.00,Wunderground v.1.15,2013-03-17 23:02:00,
2013-03-17 19:07:00,67.4,50.2,29.83,WSW,243,9.0,12.0,54,0.00,,,0.00,Wunderground v.1.15,2013-03-17 23:07:00,
2013-03-17 19:12:00,67.4,50.2,29.83,SW,214,10.0,12.0,54,0.00,,,0.00,Wunderground v.1.15,2013-03-17 23:12:00,
2013-03-17 19:17:00,67.2,50.5,29.84,WSW,239,9.0,9.0,55,0.00,,,0.00,Wunderground v.1.15,2013-03-17 23:17:00,
2013-03-17 19:27:00,66.9,50.2,29.84,West,269,8.0,8.0,55,0.00,,,0.00,Wunderground v.1.15,2013-03-17 23:27:00,
2013-03-17 19:32:00,66.8,50.1,29.84,SW,233,8.0,8.0,55,0.00,,,0.00,Wunderground v.1.15,2013-03-17 23:32:00,
2013-03-17 19:37:00,66.7,50.0,29.84,SW,229,7.0,7.0,55,0.00,,,0.00,Wunderground v.1.15,2013-03-17 23:37:00,
2013-03-17 19:42:00,66.6,50.4,29.85,WSW,248,7.0,7.0,56,0.00,,,0.00,Wunderground v.1.15,2013-03-17 23:42:00,
2013-03-17 19:47:00,66.2,50.0,29.85,SW,224,6.0,6.0,56,0.00,,,0.00,Wunderground v.1.15,2013-03-17 23:47:00,
2013-03-17 19:57:00,65.4,50.2,29.85,SW,224,3.0,3.0,58,0.00,,,0.00,Wunderground v.1.15,2013-03-17 23:57:00,
2013-03-17 20:02:00,64.9,50.2,29.86,SW,226,4.0,4.0,59,0.00,,,0.00,Wunderground v.1.15,2013-03-18 00:02:00,
2013-03-17 20:07:00,64.6,50.4,29.85,SW,231,4.0,4.0,60,0.00,,,0.00,Wunderground v.1.15,2013-03-18 00:07:00,
2013-03-17 20:12:00,64.4,50.2,29.85,WSW,245,4.0,5.0,60,0.00,,,0.00,Wunderground v.1.15,2013-03-18 00:12:00,
2013-03-17 20:17:00,64.1,50.4,29.85,SSW,203,4.0,4.0,61,0.00,,,0.00,Wunderground v.1.15,2013-03-18 00:17:00,
2013-03-17 20:22:00,64.0,50.3,29.85,SW,219,4.0,5.0,61,0.00,,,0.00,Wunderground v.1.15,2013-03-18 00:22:00,
2013-03-17 20:32:00,63.3,50.1,29.86,SW,225,3.0,5.0,62,0.00,,,0.00,Wunderground v.1.15,2013-03-18 00:32:00,
2013-03-17 20:37:00,63.0,50.2,29.85,SW,225,3.0,5.0,63,0.00,,,0.00,Wunderground v.1.15,2013-03-18 00:37:00,
2013-03-17 20:42:00,62.7,49.9,29.85,SW,219,4.0,5.0,63,0.00,,,0.00,Wunderground v.1.15,2013-03-18 00:42:00,
2013-03-17 20:47:00,62.4,50.1,29.86,SW,226,4.0,4.0,64,0.00,,,0.00,Wunderground v.1.15,2013-03-18 00:47:00,
2013-03-17 20:52:00,62.3,50.0,29.86,WSW,240,3.0,5.0,64,0.00,,,0.00,Wunderground v.1.15,2013-03-18 00:52:00,
2013-03-17 21:02:00,61.4,49.9,29.86,WSW,246,1.0,5.0,66,0.00,,,0.00,Wunderground v.1.15,2013-03-18 01:02:00,
2013-03-17 21:07:00,61.1,50.1,29.86,WSW,248,1.0,5.0,67,0.00,,,0.00,Wunderground v.1.15,2013-03-18 01:07:00,
2013-03-17 21:12:00,60.8,49.8,29.86,WSW,242,1.0,5.0,67,0.00,,,0.00,Wunderground v.1.15,2013-03-18 01:12:00,
2013-03-17 21:17:00,60.6,50.0,29.86,SW,233,1.0,5.0,68,0.00,,,0.00,Wunderground v.1.15,2013-03-18 01:17:00,
2013-03-17 21:22:00,60.6,50.0,29.86,SW,214,2.0,5.0,68,0.00,,,0.00,Wunderground v.1.15,2013-03-18 01:22:00,
2013-03-17 21:27:00,60.8,49.8,29.86,SW,225,2.0,5.0,67,0.00,,,0.00,Wunderground v.1.15,2013-03-18 01:27:00,
2013-03-17 21:37:00,60.3,49.7,29.86,SW,228,2.0,5.0,68,0.00,,,0.00,Wunderground v.1.15,2013-03-18 01:37:00,
2013-03-17 21:42:00,60.3,49.7,29.86,SW,233,1.0,5.0,68,0.00,,,0.00,Wunderground v.1.15,2013-03-18 01:42:00,
2013-03-17 21:47:00,60.2,49.6,29.86,WSW,253,2.0,5.0,68,0.00,,,0.00,Wunderground v.1.15,2013-03-18 01:47:00,
2013-03-17 21:52:00,60.2,49.6,29.86,SW,231,2.0,5.0,68,0.00,,,0.00,Wunderground v.1.15,2013-03-18 01:52:00,
2013-03-17 21:57:00,60.3,49.7,29.86,SW,228,3.0,3.0,68,0.00,,,0.00,Wunderground v.1.15,2013-03-18 01:57:00,
2013-03-17 22:07:00,59.8,49.6,29.86,SW,236,2.0,2.0,69,0.00,,,0.00,Wunderground v.1.15,2013-03-18 02:07:00,
2013-03-17 22:12:00,59.6,49.8,29.86,SW,236,2.0,5.0,70,0.00,,,0.00,Wunderground v.1.15,2013-03-18 02:12:00,
2013-03-17 22:17:00,59.3,49.5,29.86,WSW,239,2.0,2.0,70,0.00,,,0.00,Wunderground v.1.15,2013-03-18 02:17:00,
2013-03-17 22:22:00,58.8,49.4,29.86,SW,233,1.0,5.0,71,0.00,,,0.00,Wunderground v.1.15,2013-03-18 02:22:00,
2013-03-17 22:27:00,58.2,49.6,29.86,SW,233,0.0,5.0,73,0.00,,,0.00,Wunderground v.1.15,2013-03-18 02:27:00,
2013-03-17 22:32:00,57.6,49.4,29.86,SW,233,0.0,5.0,74,0.00,,,0.00,Wunderground v.1.15,2013-03-18 02:32:00,
2013-03-17 22:42:00,56.7,49.2,29.86,SW,233,0.0,5.0,76,0.00,,,0.00,Wunderground v.1.15,2013-03-18 02:42:00,
2013-03-17 22:47:00,56.4,49.3,29.86,SW,236,0.0,5.0,77,0.00,,,0.00,Wunderground v.1.15,2013-03-18 02:47:00,
2013-03-17 22:52:00,56.0,48.9,29.87,SW,229,1.0,5.0,77,0.00,,,0.00,Wunderground v.1.15,2013-03-18 02:52:00,
2013-03-17 22:57:00,55.5,48.8,29.87,SW,228,1.0,1.0,78,0.00,,,0.00,Wunderground v.1.15,2013-03-18 02:57:00,
2013-03-17 23:02:00,55.0,48.6,29.87,SW,228,0.0,5.0,79,0.00,,,0.00,Wunderground v.1.15,2013-03-18 03:02:00,
2013-03-17 23:12:00,54.5,48.8,29.87,SW,228,0.0,5.0,81,0.00,,,0.00,Wunderground v.1.15,2013-03-18 03:12:00,
2013-03-17 23:17:00,54.6,48.9,29.87,WSW,239,1.0,1.0,81,0.00,,,0.00,Wunderground v.1.15,2013-03-18 03:17:00,
2013-03-17 23:22:00,54.6,48.9,29.87,WSW,239,1.0,5.0,81,0.00,,,0.00,Wunderground v.1.15,2013-03-18 03:22:00,
2013-03-17 23:27:00,54.3,48.6,29.87,WSW,239,0.0,5.0,81,0.00,,,0.00,Wunderground v.1.15,2013-03-18 03:27:00,
2013-03-17 23:32:00,54.3,48.9,29.87,SW,228,0.0,5.0,82,0.00,,,0.00,Wunderground v.1.15,2013-03-18 03:32:00,
2013-03-17 23:37:00,54.3,48.9,29.87,SW,236,0.0,5.0,82,0.00,,,0.00,Wunderground v.1.15,2013-03-18 03:37:00,
2013-03-17 23:42:00,54.3,48.9,29.87,SW,236,0.0,5.0,82,0.00,,,0.00,Wunderground v.1.15,2013-03-18 03:42:00,
2013-03-17 23:47:00,54.0,49.0,29.88,West,272,1.0,5.0,83,0.00,,,0.00,Wunderground v.1.15,2013-03-18 03:47:00,
2013-03-17 23:52:00,54.2,49.1,29.88,WSW,257,1.0,5.0,83,0.00,,,0.00,Wunderground v.1.15,2013-03-18 03:52:00,
2013-03-17 23:57:00,54.7,49.6,29.88,WSW,239,1.0,5.0,83,0.00,,,0.00,Wunderground v.1.15,2013-03-18 03:57:00,